{"data":{"norad_id":48589,"intl_designator":"2021-041AN","name":"STARLINK-2245","alt_names":[],"object_type":"PAYLOAD","status":"ACTIVE","operator":null,"country":"US","launch_date":"2021-05-15","launch_site_code":"AFETR","launch_vehicle":null,"mission":null,"orbit_class":"UNKNOWN","rcs_meters":null,"size_class":null,"mass_kg":null,"dimensions":null,"purposes":["comms"],"wikipedia_slug":null,"has_3d_model":false,"image_url":null,"decayed_at":null,"tle_current":{"epoch":"2026-05-25T03:11:02.040864Z","epoch_age_seconds":59755,"freshness":"FRESH","line1":"1 48589U 21041AN  26145.13266251 -.00000155  00000+0  67778-5 0  9997","line2":"2 48589  53.1586 131.2464 0001182  99.3074 260.8061 15.31698678276988","mean_motion":15.31698678,"eccentricity":0.0001182,"inclination_deg":53.1586,"raan_deg":131.2464,"arg_perigee_deg":99.3074,"mean_anomaly_deg":260.8061,"bstar":6.7778e-6,"rev_number":27698,"period_min":94.013269103311,"perigee_km":469.93439831505,"apogee_km":471.55347376833,"semimajor_km":6848.8809360417,"source":"CELESTRAK","updated_at":"2026-05-25T13:38:16.750687Z"}}}